COSMOS 2058

Satellite information

Favourite Embed

Satellite Type and Status

PAYLOADIN ORBIT

Key statistics

Satellite COSMOS 2058 at a glance.

Uptime

13005

Days in orbit

Revolutions

≈ 15.1

Per day

Orbit

LEO

Low Earth Orbit

Inclination

82.5

Latest

Satellite identification and parameters

Extended collection of information and parameters for COSMOS 2058.

Object identification

Identified? True

Debris? False

Object name: COSMOS 2058

International designator: 1990-010A

Object number (NORAD): 20465

Object ID (CCSDS): 20465

Country: COMMONWEALTH OF INDEPENDENT STATES (CIS)

Current information (Y/N): Y

RCS size: LARGE

Orbital parameters

Period: 95.401 minutes

Inclination: 82.4736 deg

SMA: 6916.136 km

Apoapsis: 543.729 km

Periapsis: 532.273 km

RAAN: 227.1641 deg

Eccentricy: 0.00082821

Argument of periapsis: 231.3039 deg

Mean anomaly: 128.745 deg

Mean motion: 15.0941077 rev/day

Mean motion (dot): 0.00004529 rev/day2

B* drag term: 0.00028148414 1/REarth

Two-line elements (TLE)

Creation date: Sept. 8, 2025, 3:16 a.m.

Reference frame: TEME

Reference center: EARTH

Epoch: Sept. 7, 2025, 10:21 p.m. UTC

TLE line 0: 0 COSMOS 2058

TLE line 1: 1 20465U 90010A 25250.93145598 .00004529 00000-0 28148-3 0 9991

TLE line 2: 2 20465 82.4736 227.1641 0008282 231.3039 128.7450 15.09410770914659

Live tracking on map

Real-time ground track for satellite COSMOS 2058.

In-orbit conjunctions

A list of the most updated potential collisions computed for object COSMOS 2058.

Target Orbit TCA Probability of collision Miss distance Type
FENGYUN 1C DEB SSO 2025-07-05 05:44:38 0.0001310689 448.0 (m) DEBRIS

Associated space launch

Tselina-R series ELINT satellite

COSMOS 2058 was lifted into orbit during the mission ‘Tsiklon-3 | Tselina-R 2’, on board a Tsiklon-3 space rocket.

The launch took place on Jan. 30, 1990, 11:20 a.m. from 32/1.

For more information about the launch, click the button.

Launch to space Tsiklon-3 | Tselina-R 2
Tsiklon-3 | Tselina-R 2

Agency: N/A

Status: Launch Successful

Launch date: Jan. 30, 1990, 11:20 a.m. UTC

Rocket: Tsiklon-3

Launch pad: 32/1

Location: Plesetsk Cosmodrome, Russian Federation

...

Latest news about this satellite

There are no fresh news available about this satellite. Check back as we update our databases every day.


Newsletter sign-up

Weekly statistics, charts and insights to help you stay on top of the space industry.